Preview of NWS' New Version of Forecast
This preview is not operational and should not be used for support decisions.

Regional Weather Roundup (RWR)

Issued by National Weather Service (NWS)

                            
000
ASUS45 KCYS 181810
RWRWY 

WYOMING REGIONAL WEATHER ROUNDUP
NATIONAL WEATHER SERVICE CHEYENNE WY
1200 PM MDT TUE JUN 18 2019

NOTE:  "FAIR" INDICATES FEW OR NO CLOUDS BELOW 12,000 FEET
WITH NO SIGNIFICANT WEATHER AND/OR OBSTRUCTIONS TO VISIBILITY.

WYZ001-181900-
YELLOWSTONE NATIONAL PARK
  
CITY           SKY/WX    TMP DP  RH WIND       PRES   REMARKS
LK YELLOWSTONE NOT AVBL                                               
W YELLOWSTONE  NOT AVBL                                               

$$
WYZ002>013-054>058-071-098>099-181900-
NORTHERN WYOMING
  
CITY           SKY/WX    TMP DP  RH WIND       PRES   REMARKS
JACKSON        FAIR      64  49  57 SW7       30.17F                  
CODY           FAIR      69  47  45 CALM      30.05F                  
GREYBULL       FAIR      73  49  42 MISG      29.99F                  
6HR MIN TEMP:  57; 6HR MAX TEMP:  73;                                

WORLAND        FAIR      72  50  45 W3        30.00F                  
6HR MIN TEMP:  54; 6HR MAX TEMP:  73;                                

SHERIDAN       FAIR      72  50  45 S6        29.99F                  
6HR MIN TEMP:  50; 6HR MAX TEMP:  72;                                

BUFFALO        CLOUDY    62  48  60 W12       30.06R                  
6HR MIN TEMP:  51; 6HR MAX TEMP:  69; 6HR PCP:  0.01;                

GILLETTE       PTSUNNY   65  53  65 NE8       29.99F THUNDER          
6HR MIN TEMP:  54; 6HR MAX TEMP:  69;                                

NEWCASTLE      FAIR      63  52  67 CALM      30.04                   

$$
WYZ014>020-022>026-101>103-181900-
CENTRAL WYOMING
  
CITY           SKY/WX    TMP DP  RH WIND       PRES   REMARKS
BIG PINEY      PTSUNNY   62  44  51 S7        30.18F                  
6HR MIN TEMP:  38; 6HR MAX TEMP:  65;                                

PINEDALE       FAIR      64  37  36 NW9G18    30.18                   
DUBOIS         FAIR      63  34  34 N15G25    30.15                   
LANDER         FAIR      67  50  54 VRB6      30.07S                  
6HR MIN TEMP:  50; 6HR MAX TEMP:  67;                                

RIVERTON       FAIR      70  48  45 N6G17     30.06F                  
6HR MIN TEMP:  51; 6HR MAX TEMP:  70;                                

CASPER         PTSUNNY   68  51  54 SW6G15    30.05F                  
6HR MIN TEMP:  50; 6HR MAX TEMP:  69;                                

DOUGLAS        FAIR      65  54  67 SW8       30.05F                  
6HR MIN TEMP:  54; 6HR MAX TEMP:  65; 6HR PCP:  0.02;                


$$
WYZ021-027>030-104>119-181900-
SOUTHERN WYOMING
  
CITY           SKY/WX    TMP DP  RH WIND       PRES   REMARKS
EVANSTON       FAIR      64  43  46 W9        30.21F                  
6HR MIN TEMP:  45; 6HR MAX TEMP:  65;                                

KEMMERER       FAIR      64  41  42 W12G22    30.22                   
FORT BRIDGER   FAIR      70  41  35 NW9       30.23F                  
ROCK SPRINGS   FAIR      65  44  46 W10       30.16F                  
6HR MIN TEMP:  47; 6HR MAX TEMP:  66;                                

DIXON          FAIR      65  46  49 SW9       30.18S THUNDER          
RAWLINS        PTSUNNY   64  49  57 W14G24    30.14F                  
6HR MIN TEMP:  51; 6HR MAX TEMP:  65; 6HR PCP: TRACE;                

SARATOGA       FAIR      55  45  67 SW15G25   30.16F THUNDER          
LARAMIE        CLOUDY    60  47  61 N6        30.14F THUNDER          
6HR MIN TEMP:  47; 6HR MAX TEMP:  61;                                

CHEYENNE       PTSUNNY   57  52  83 E9        30.12F                  
6HR MIN TEMP:  52; 6HR MAX TEMP:  61;                                

TORRINGTON     CLOUDY    66  56  70 S12       30.04F                  
6HR MIN TEMP:  53; 6HR MAX TEMP:  68;                                

PINE BLUFFS    MOCLDY    61  52  72 E3        30.10S                  

$$